Tracking 25195 objects as of 20-Jan-2022
HD Live streaming from Space Station
objects crossing your sky now

SL-8 R/B

Track SL-8 R/B now!
10-day predictions


NORAD ID: 11304
Int'l Code: 1979-024J
Perigee: 1,466.2 km
Apogee: 1,696.5 km
Inclination: 74.0 °
Period: 117.6 minutes
Semi major axis: 7952 km
RCS: 6.3043 m2 (large)
Launch date: March 15, 1979
Source: Commonwealth of Independent States (former USSR) (CIS)
Launch site: PLESETSK MISSILE AND SPACE COMPLEX (PKMTR)

Note: This is a ROCKET BODY
aabbcc
Your satellite tracking list
Your tracking list is empty




NASA's NSSDC Master Catalog

Two Line Element Set (TLE):
1 11304U 79024J   22020.53693356  .00000076  00000-0  80217-3 0  9991
2 11304  74.0371 222.4476 0144803 168.3641 192.0802 12.24225334914991
Source of the keplerian elements: AFSPC